Francistown, Botswana

6:56 AM CAT on April 27, 2018 (GMT +0200)
Francistown

Weather History for FBFT - February, 2014

Change the Weather History Date:

Wednesday, February 19, 2014

  Actual Average Record
Temperature  
Mean Temperature 72 °F -  
Max Temperature 86 °F 83 °F 96 °F (2016)
Min Temperature 58 °F 64 °F 57 °F (2015)
Cooling Degree Days 7    
Growing Degree Days 22 (Base 50)    
Moisture  
Dew Point 58 °F    
Average Humidity 67    
Maximum Humidity 94    
Minimum Humidity 36    
Precipitation  
Precipitation 0.00 in - - ()
Sea Level Pressure  
Sea Level Pressure 29.97 in    
Wind  
Wind Speed 4 mph ()    
Max Wind Speed 10 mph    
Max Gust Speed -    
Visibility 6.1 miles    
Events      
Averages and records for this station are not official NWS values.
T = Trace of Precipitation, MM = Missing Value Source: Averaged Metar Reports

Daily Weather History Graph

Daily Weather History Graph

Search for Another Location

Airport or City:

Astronomy

Feb. 19, 2014 Rise Set
Actual Time 6:02 AM CAT 6:45 PM CAT
Civil Twilight 5:39 AM CAT 7:07 PM CAT
Nautical Twilight 5:12 AM CAT 7:34 PM CAT
Astronomical Twilight 4:45 AM CAT 8:01 PM CAT
Moon 9:30 PM CAT (2/19) 9:36 AM CAT (2/19)
Length of Visible Light 13h 28m
Length of Day
12h 42m
Waning Gibbous, 82% of the Moon is Illuminated
Feb 19
Waning Gibbous
Feb 22
Last Quarter
Mar 1
New
Mar 8
First Quarter
Mar 16
Full

Hourly Weather History & Observations

Time (CAT) Temp. Heat Index Dew Point Humidity Pressure Visibility Wind Dir Wind Speed Gust Speed Precip Events Conditions
12:00 AM 64.4 °F - 60.8 °F 88% 30.01 in - NW 3.5 mph - N/A   Clear
1:00 AM 62.6 °F - 59.0 °F 88% 30.01 in - Variable 2.3 mph - N/A   Clear
2:00 AM 61 °F - 59 °F 90%  in 6 mi NNW 3.5 mph - -  
2:00 AM 60.8 °F - 59.0 °F 94% 30.01 in - NNW 3.5 mph - N/A   Clear
3:00 AM 60.8 °F - 59.0 °F 94% 30.01 in - NW 3.5 mph - N/A   Clear
4:00 AM 60.8 °F - 57.2 °F 88% 29.98 in - Calm Calm - N/A   Clear
5:00 AM - - -46 °F %  in 6 mi Calm Calm - -  
5:00 AM 59.0 °F - 57.2 °F 94% 29.98 in - Calm Calm - N/A   Clear
6:00 AM 59.0 °F - 57.2 °F 94% 30.01 in - Variable 2.3 mph - N/A   Clear
7:00 AM 60.8 °F - 59.0 °F 94% 30.01 in - Variable 1.2 mph - N/A   Clear
8:00 AM 68 °F - 61 °F 73%  in 6 mi SSE 1.2 mph - -   Partly Cloudy
8:00 AM 68.0 °F - 60.8 °F 78% 30.04 in - Variable 1.2 mph - N/A   Clear
9:00 AM 75.2 °F - 60.8 °F 61% 30.04 in - ESE 5.8 mph - N/A   Clear
11:00 AM 80 °F - 60 °F 40%  in 6 mi East 6.9 mph - -   Partly Cloudy
11:00 AM 80.6 °F 81.5 °F 60.8 °F 51% 30.01 in 6.2 mi East 6.9 mph - N/A   Partly Cloudy
12:00 PM 82.4 °F 83.4 °F 62.6 °F 51% 30.01 in 6.2 mi SE 6.9 mph - N/A   Partly Cloudy
1:00 PM 84.2 °F 85.0 °F 62.6 °F 48% 29.98 in 6.2 mi SE 8.1 mph - N/A   Scattered Clouds
2:00 PM 85 °F - 62 °F 37%  in 6 mi SSE 8.1 mph - -   Partly Cloudy
2:00 PM 84.2 °F 85.0 °F 62.6 °F 48% 29.95 in 6.2 mi SSE 8.1 mph - N/A   Scattered Clouds
3:00 PM 86.0 °F 87.3 °F 64.4 °F 48% 29.95 in 6.2 mi SE 6.9 mph - N/A   Scattered Clouds
4:00 PM 84.2 °F 85.0 °F 62.6 °F 48% 29.89 in 6.2 mi SSE 5.8 mph - N/A   Partly Cloudy
5:00 PM 85 °F - 62 °F 36%  in 6 mi ESE 6.9 mph - -   Partly Cloudy
5:00 PM 86.0 °F 86.6 °F 62.6 °F 45% 29.89 in 6.2 mi ESE 6.9 mph - N/A   Partly Cloudy
6:00 PM 82.4 °F 82.9 °F 60.8 °F 48% 29.89 in 6.2 mi East 10.4 mph - N/A   Scattered Clouds
7:00 PM 78.8 °F - 64.4 °F 61% 29.92 in 6.2 mi SE 5.8 mph - N/A   Partly Cloudy
8:00 PM 78 °F - 68 °F 63%  in 6 mi ESE 5.8 mph - -   Smoke
8:00 PM 75.2 °F - 62.6 °F 65% 29.92 in - North - - N/A   Partly Cloudy
9:00 PM 73.4 °F - 62.6 °F 69% 29.92 in - East 5.8 mph - N/A   Clear
10:00 PM 71.6 °F - 62.6 °F 73% 29.95 in - NE 4.6 mph - N/A   Clear
11:00 PM 68 °F - 62 °F 74%  in 6 mi NNW 3.5 mph - -  
11:00 PM 68.0 °F - 55.4 °F 64% 29.95 in - NNW 3.5 mph - N/A   Clear